Location: The Saddle
(36.8333°N, 80.3417°W)
Time: 06:59:20
(UTC-04:00)

A-11 Canister half - All Passes

Search period start: 08 July 2025 00:00
Search period end: 18 July 2025 00:00
Orbit: 1514 x 1685 km, 47.2° (Epoch: 07 July)

Date Brightness Start Highest point End Pass type
(mag) Time Alt. Az. Time Alt. Az. Time Alt. Az.
08 Jul - 08:51:12 10° S 08:58:50 26° SE 09:06:34 10° ENE daylight
08 Jul - 10:52:47 10° SW 11:02:49 82° SE 11:13:02 10° ENE daylight
08 Jul - 12:58:46 10° W 13:08:37 52° NNW 13:18:30 10° ENE daylight
08 Jul - 15:05:39 10° WNW 15:15:28 50° N 15:25:09 10° E daylight
08 Jul - 17:11:18 10° WNW 17:21:31 88° NE 17:31:23 10° SE daylight
08 Jul - 19:17:21 10° WNW 19:25:42 31° SW 19:33:50 10° S daylight
09 Jul - 08:28:36 10° S 08:35:53 24° SE 08:43:16 10° ENE daylight
09 Jul - 10:29:47 10° SW 10:39:46 78° SE 10:49:58 10° ENE daylight
09 Jul - 12:35:36 10° W 12:45:28 54° NNW 12:55:24 10° ENE daylight
09 Jul - 14:42:30 10° WNW 14:52:19 49° N 15:01:59 10° E daylight
09 Jul - 16:48:13 10° WNW 16:58:26 85° NNE 17:08:22 10° ESE daylight
09 Jul - 18:54:08 10° WNW 19:02:44 34° SW 19:11:08 10° S daylight
10 Jul - 08:06:03 10° S 08:12:56 22° SE 08:19:54 10° E daylight
10 Jul - 10:06:47 10° SW 10:16:43 74° SE 10:26:52 10° ENE daylight
10 Jul - 12:12:26 10° W 12:22:19 55° NNW 12:32:17 10° ENE daylight
10 Jul - 14:19:22 10° WNW 14:29:09 48° N 14:38:49 10° E daylight
10 Jul - 16:25:07 10° WNW 16:35:21 81° NNE 16:45:19 10° ESE daylight
10 Jul - 18:30:56 10° WNW 18:39:46 36° SW 18:48:23 10° SSE daylight
11 Jul - 07:43:33 10° SSE 07:49:59 20° ESE 07:56:31 10° E daylight
11 Jul - 09:43:49 10° SW 09:53:40 70° SE 10:03:46 10° ENE daylight
11 Jul - 11:49:17 10° W 11:59:11 57° NNW 12:09:11 10° ENE daylight
11 Jul - 13:56:14 10° WNW 14:05:59 48° N 14:15:40 10° E daylight
11 Jul - 16:02:02 10° WNW 16:12:16 78° NNE 16:22:15 10° ESE daylight
11 Jul - 18:07:45 10° WNW 18:16:48 39° SW 18:25:36 10° SSE daylight
12 Jul - 07:21:07 10° SSE 07:27:02 18° ESE 07:33:03 10° E daylight
12 Jul - 09:20:52 10° SW 09:30:39 67° SE 09:40:41 10° ENE daylight
12 Jul - 11:26:08 10° W 11:36:02 58° NNW 11:46:05 10° ENE daylight
12 Jul - 13:33:04 10° WNW 13:42:49 47° N 13:52:30 10° ENE daylight
12 Jul - 15:38:57 10° WNW 15:49:11 75° NNE 15:59:10 10° ESE daylight
12 Jul - 17:44:35 10° WNW 17:53:49 42° SW 18:02:48 10° SSE daylight
13 Jul - 06:58:47 10° SSE 07:04:06 16° ESE 07:09:30 10° E daylight
13 Jul - 08:57:55 10° SW 09:07:36 63° SE 09:17:34 10° ENE daylight
13 Jul - 11:02:59 10° W 11:12:54 60° NNW 11:22:59 10° ENE daylight
13 Jul - 13:09:55 10° WNW 13:19:39 47° N 13:29:20 10° ENE daylight
13 Jul - 15:15:52 10° WNW 15:26:05 72° NNE 15:36:05 10° ESE daylight
13 Jul - 17:21:26 10° WNW 17:30:49 45° SW 17:39:59 10° SSE daylight
14 Jul - 06:36:34 10° SSE 06:41:11 14° ESE 06:45:51 10° E daylight
14 Jul - 08:35:01 10° SSW 08:44:36 59° SE 08:54:28 10° ENE daylight
14 Jul - 10:39:52 10° WSW 10:49:47 62° NNW 10:59:53 10° ENE daylight
14 Jul - 12:46:47 10° WNW 12:56:28 47° N 13:06:10 10° ENE daylight
14 Jul - 14:52:46 10° WNW 15:02:59 70° NNE 15:12:59 10° ESE daylight
14 Jul - 16:58:17 10° WNW 17:07:50 48° SW 17:17:08 10° SSE daylight
15 Jul - 06:14:33 10° SE 06:18:15 13° ESE 06:22:00 10° E daylight
15 Jul - 08:12:06 10° SSW 08:21:35 56° SE 08:31:21 10° ENE daylight
15 Jul - 10:16:44 10° WSW 10:26:39 64° NNW 10:36:47 10° ENE daylight
15 Jul - 12:23:37 10° WNW 12:33:18 47° N 12:42:59 10° ENE daylight
15 Jul - 14:29:41 10° WNW 14:39:52 67° NNE 14:49:53 10° ESE daylight
15 Jul - 16:35:09 10° WNW 16:44:50 51° SW 16:54:16 10° SSE daylight
15 Jul - 18:45:57 10° WSW 18:48:05 11° WSW 18:50:11 10° SW daylight
16 Jul - 05:52:57 10° SE 05:55:20 11° ESE 05:57:44 10° ESE daylight
16 Jul - 07:49:13 10° SSW 07:58:34 52° SE 08:08:13 10° ENE daylight
16 Jul - 09:53:38 10° WSW 10:03:32 66° NNW 10:13:41 10° ENE daylight
16 Jul - 12:00:28 10° WNW 12:10:07 47° N 12:19:49 10° ENE daylight
16 Jul - 14:06:37 10° WNW 14:16:45 65° NNE 14:26:45 10° ESE daylight
16 Jul - 16:12:01 10° WNW 16:21:49 55° SW 16:31:22 10° SSE daylight
16 Jul - 18:21:34 10° W 18:25:09 12° WSW 18:28:42 10° SW daylight
17 Jul - 07:26:21 10° SSW 07:35:35 49° SE 07:45:05 10° ENE daylight
17 Jul - 09:30:32 10° WSW 09:40:25 69° NNW 09:50:36 10° ENE daylight
17 Jul - 11:37:18 10° WNW 11:46:57 47° N 11:56:39 10° ENE daylight
17 Jul - 13:43:31 10° WNW 13:53:37 63° NNE 14:03:37 10° ESE daylight
17 Jul - 15:48:54 10° WNW 15:58:47 58° SW 16:08:28 10° SSE daylight
17 Jul - 17:57:40 10° W 18:02:13 14° WSW 18:06:44 10° SSW daylight
